This is the latest recevied weather packets stored in our database for station/object W4OTS. If no packets are shown the sender has not sent any weather packets the latest 10 day(s).
| Time | Temp. | Humidity | Pressure | Rain* | Wind** | Luminosity | Snow |
|---|---|---|---|---|---|---|---|
| 1777295912 | 12.22° C | 78% | 1026.3 hPa | 0 mm | - | 123 W/m² | - |
| 1777295608 | 11.67° C | 79% | 1026.2 hPa | 0 mm | - | 140 W/m² | - |
| 1777295306 | 11.67° C | 80% | 1026.2 hPa | 0 mm | - | 162 W/m² | - |
| 1777295004 | 11.67° C | 80% | 1026.1 hPa | 0 mm | - | 112 W/m² | - |
| 1777294701 | 11.67° C | 80% | 1025.9 hPa | 0 mm | - | 121 W/m² | - |
| 1777294395 | 11.67° C | 80% | 1026.2 hPa | 0 mm | - | 111 W/m² | - |
| 1777294093 | 11.11° C | 80% | 1026 hPa | 0 mm | - | 92 W/m² | - |
| 1777293789 | 11.11° C | 81% | 1026.2 hPa | 0 mm | - | 97 W/m² | - |
| 1777293484 | 11.11° C | 81% | 1026.2 hPa | 0 mm | - | 78 W/m² | - |
| 1777293180 | 11.11° C | 81% | 1026.2 hPa | 0 mm | - | 80 W/m² | - |
| 1777292879 | 11.11° C | 82% | 1026.4 hPa | 0 mm | - | 86 W/m² | - |
| 1777292576 | 11.11° C | 82% | 1026 hPa | 0 mm | - | 78 W/m² | - |
| 1777292271 | 11.11° C | 81% | 1026.1 hPa | 0 mm | - | 77 W/m² | - |
| 1777291968 | 11.11° C | 82% | 1026.1 hPa | 0 mm | - | 78 W/m² | - |
| 1777291665 | 10.56° C | 83% | 1025.8 hPa | 0 mm | - | 74 W/m² | - |
| 1777291362 | 10.56° C | 83% | 1025.7 hPa | 0 mm | - | 55 W/m² | - |
| 1777291059 | 10.56° C | 84% | 1025.8 hPa | 0 mm | - | 51 W/m² | - |
| 1777290755 | 10.56° C | 84% | 1026 hPa | 0 mm | - | 41 W/m² | - |
| 1777290452 | 10.56° C | 84% | 1026.2 hPa | 0 mm | - | 39 W/m² | - |
| 1777290148 | 10.56° C | 84% | 1025.8 hPa | 0 mm | - | 37 W/m² | - |
| 1777289845 | 10.56° C | 85% | 1025.9 hPa | 0 mm | - | 29 W/m² | - |
* Rain latest hour (hover to see other rain measurements)
** Current wind speed in m/s (hover to see current wind gust speed)